Weather History for KEKQ - January, 2013

Change the Weather History Date:

Thursday, January 24, 2013

  Actual Average Record
Temperature  
Mean Temperature 26 °F -  
Max Temperature 34 °F 48 °F 75 °F (1972)
Min Temperature 18 °F 27 °F -21 °F (1963)
Degree Days  
Heating Degree Days 39    
Moisture  
Dew Point 8 °F    
Average Humidity 50    
Maximum Humidity 69    
Minimum Humidity 26    
Precipitation  
Precipitation 0.00 in - - ()
Sea Level Pressure  
Sea Level Pressure 30.43 in    
Wind  
Wind Speed 10 mph (SSW)    
Max Wind Speed 17 mph    
Max Gust Speed 24 mph    
Visibility 10 miles    
Events      
Averages and records for this station are not official NWS values.
T = Trace of Precipitation, MM = Missing Value Source: NWS Daily Summary

Daily Weather History Graph

Daily Weather History Graph

Search for Another Location

Airport or City:

Trip Planner

Search our weather history database for the weather conditions in past years. The results will help you decide how hot, cold, wet, or windy it might be!

Date:

Astronomy

Jan. 24, 2013 Rise Set
Actual Time 6:47 AM CST 4:56 PM CST
Civil Twilight 6:19 AM CST 5:24 PM CST
Nautical Twilight 5:48 AM CST 5:55 PM CST
Astronomical Twilight 5:17 AM CST 6:26 PM CST
Moon 2:58 PM CST (1/24) 4:43 AM CST (1/24)
Length of Visible Light 11h 04m
Length of Day
10h 09m
Waxing Gibbous, 94% of the Moon is Illuminated
Jan 24
Waxing Gibbous
Jan 26
Full
Feb 3
Last Quarter
Feb 10
New
Feb 17
First Quarter

Hourly Weather History & Observations

Time (CST) Temp. Windchill Dew Point Humidity Pressure Visibility Wind Dir Wind Speed Gust Speed Precip Events Conditions
12:56 AM 34.0 °F 24.6 °F 24.1 °F 67% 30.23 in 10.0 mi ESE 13.8 mph - N/A   Clear
1:56 AM 32.0 °F 24.8 °F 21.0 °F 64% 30.25 in 10.0 mi SE 8.1 mph - N/A   Clear
2:56 AM 31.1 °F 23.1 °F 20.1 °F 64% 30.28 in 10.0 mi SE 9.2 mph - N/A   Clear
3:56 AM 29.1 °F 20.6 °F 19.0 °F 66% 30.31 in 10.0 mi SE 9.2 mph - N/A   Clear
4:30 AM 28.4 °F 18.0 °F 19.4 °F 69% 30.29 in 10.0 mi South 12.7 mph - N/A   Mostly Cloudy
4:56 AM 27.1 °F 17.5 °F 17.1 °F 66% 30.36 in 10.0 mi South 10.4 mph 20.7 mph N/A   Scattered Clouds
5:36 AM 24.8 °F 13.4 °F 15.8 °F 69% 30.34 in 10.0 mi SSW 12.7 mph 24.2 mph N/A   Mostly Cloudy
5:56 AM 24.1 °F 12.5 °F 14.0 °F 65% 30.41 in 10.0 mi South 12.7 mph 21.9 mph N/A   Mostly Cloudy
6:09 AM 23.0 °F 9.2 °F 12.2 °F 63% 30.37 in 10.0 mi South 17.3 mph - N/A   Mostly Cloudy
6:56 AM 22.1 °F 12.0 °F 10.0 °F 60% 30.47 in 10.0 mi SSW 9.2 mph - N/A   Scattered Clouds
7:56 AM 23.0 °F 13.1 °F 9.1 °F 55% 30.51 in 10.0 mi SSW 9.2 mph 18.4 mph N/A   Clear
9:56 AM 25.2 °F 12.4 °F 6.1 °F 44% 30.56 in 10.0 mi SSW 16.1 mph 20.7 mph N/A   Clear
10:56 AM 27.1 °F 15.9 °F 2.1 °F 34% 30.56 in 10.0 mi SSW 13.8 mph - N/A   Clear
11:56 AM 29.1 °F 21.3 °F -1.8 °F 26% 30.54 in 10.0 mi SSW 8.1 mph - N/A   Clear
12:56 PM 28.0 °F 20.0 °F 0.1 °F 30% 30.51 in 10.0 mi WSW 8.1 mph 17.3 mph N/A   Clear
1:56 PM 27.1 °F 17.5 °F -1.8 °F 29% 30.51 in 10.0 mi SSW 10.4 mph - N/A   Clear
2:56 PM 27.1 °F 18.2 °F -2.9 °F 27% 30.51 in 10.0 mi SSW 9.2 mph - N/A   Clear
3:56 PM 28.0 °F 20.8 °F -2.9 °F 26% 30.50 in 10.0 mi SSW 6.9 mph - N/A   Clear
4:56 PM 25.2 °F 18.3 °F 0.1 °F 34% 30.51 in 10.0 mi SSW 5.8 mph - N/A   Clear
5:56 PM 23.0 °F 14.7 °F 2.1 °F 41% 30.51 in 10.0 mi SW 6.9 mph - N/A   Clear
6:56 PM 21.0 °F 14.6 °F 3.0 °F 46% 30.51 in 10.0 mi SSW 4.6 mph - N/A   Clear
7:56 PM 18.1 °F - 5.0 °F 57% 30.49 in 10.0 mi Calm Calm - N/A   Clear
8:56 PM 20.1 °F - 5.0 °F 52% 30.47 in 10.0 mi Calm Calm - N/A   Clear
9:56 PM 20.1 °F 13.6 °F 3.0 °F 48% 30.44 in 10.0 mi WSW 4.6 mph - N/A   Clear
10:56 PM 21.0 °F 13.4 °F 3.0 °F 46% 30.43 in 10.0 mi WSW 5.8 mph - N/A   Clear
11:56 PM 22.1 °F 14.7 °F 4.1 °F 46% 30.39 in 10.0 mi WSW 5.8 mph - N/A   Clear